Weather in Casteldefels

Spain     41°16′43″N   1°58′40″E
temp.,
°C
wind,
m/s
gust,
m/s
humid.,
%
clouds,
%
prec.,
mm/h
press.,
hPa
HPBL,
m
20 april, tue
tue2023:00+14ese4583100 0.0 1017405
02:00+13ne3279100 0.0 1016221
05:00+13ne3377100 0.0 1015208
08:00+13ene3377100 0.0 1015242
11:00+14ene3271100 0.0 1016392
14:00+15ese4371100 0.0 1015440
17:00+15ese4475100 0.0 1013428
20:00+15e44795 0.0 1013336
21 april, wed
wed2123:00+14ne4582100 0.0 1014272
02:00+14ne5581100 0.0 1013295
05:00+13ene3484100 1.5 1013257
08:00+12e2394100 18.8 1012268
11:00+13ne4584100 6.6 1014444
14:00+13ene678583 6.6 1014554
17:00+14ene888284 0.0 1013670
20:00+13ene7885100 0.2 1014611
22 april, thu
thu2223:00+13ene8985100 0.0 1015535
02:00+13ene7982100 0.0 1014532
05:00+13ene8983100 0.0 1014569
08:00+13ene7986100 0.1 1014577
11:00+13ene7979100 0.0 1015600
14:00+14ene897594 0.0 1015633
17:00+15e787793 0.0 1015508
20:00+14e577899 0.0 1016360
23 april, fri
fri2323:00+14ene357894 0.0 1018370
02:00+14e228010 0.0 1017128
05:00+14w01775 0.0 101788
08:00+14nne11755 0.0 1018112
11:00+15se22707 0.0 1019355
14:00+15sse32676 0.0 1019413
17:00+15s3367100 0.0 1019395
20:00+15s2270100 0.0 1019216
24 april, sat
sat2423:00+15ssw2377100 0.0 1021149
02:00+14s008168 0.0 102018
05:00+14ene1181100 0.0 101934
08:00+14ene23801 0.0 1019108
11:00+15e2276100 0.0 1021305
14:00+15e4478100 0.0 1019336
17:00+16ese457490 0.0 1018387
20:00+15ene4577100 0.0 1019285